Home   Weather   Aktau   Past weeks

Flag for Kazakhstan Past Weather in Aktau, Kazakhstan — Yesterday and Last 2 Weeks

Now
64 °F

Broken clouds.


Feels Like: 64 °F
Forecast: 56 / 60 °F
Wind: 1 mph from North

Location: Aktau

Current Time: Sep 28, 2016 at 1:44:11 PM

Latest Report: Sep 28, 2016 at 1:00 PM


Visibility: N/A

Pressure: 30.04 "Hg

Humidity: 60%

Dew Point: 50 °F

Location of AktauLocation

Past Weather in Aktau — Graph

°F

Aktau Temperature Yesterday

Maximum temperature yesterday: 70 °F (at 12:00 PM)
Minimum temperature yesterday: 50 °F (at 6:00 AM)
Average temperature yesterday: 59 °F

High & Low Weather Summary for the Past Weeks

 TemperatureHumidityPressure
High88 °F (Sep 21, 1:30 PM)100% (Sep 14, 11:00 PM)30.12 "Hg (Sep 14, 11:00 PM)
Low43 °F (Sep 26, 7:30 AM)24% (Sep 21, 2:30 PM)29.65 "Hg (Sep 21, 5:00 PM)
Average64 °F71%29.92 "Hg
* Reported Sep 13 12:00 PM — Sep 28 12:30 PM, Aktau, Weather by CustomWeather, © 2016

Note: Actual official high and low records may vary slightly from our data, if they occured in-between our weather recording intervals... More about our weather records

Advertising

Aktau Weather History for the Previous 24 Hours

Scroll right to see more
 ConditionsComfort  
Time TempWeatherWind HumidityBarometerVisibility
12:30 PM
Wed, Sep 28
64 °FBroken clouds.6 mph64%30.07 "HgN/A
12:00 PM66 °FBroken clouds.6 mph56%30.07 "HgN/A
11:30 AM66 °FSunny.1 mph56%30.07 "Hg10 mi
11:00 AM63 °FPassing clouds.3 mph64%30.07 "HgN/A
10:30 AM61 °FSunny.3 mph72%30.07 "Hg10 mi
10:00 AM59 °FSunny.3 mph77%30.07 "Hg10 mi
9:30 AM57 °FPassing clouds.3 mph82%30.07 "HgN/A
9:00 AM55 °FClear.3 mph88%30.07 "Hg10 mi
8:30 AM50 °FClear.3 mph94%30.07 "Hg10 mi
8:00 AM48 °FClear.3 mph94%30.07 "Hg10 mi
7:30 AM46 °FClear.3 mph93%30.07 "Hg10 mi
7:00 AM48 °FClear.6 mph94%30.07 "Hg10 mi
6:30 AM48 °FClear.3 mph94%30.07 "Hg10 mi
6:00 AM48 °FClear.3 mph94%30.07 "Hg10 mi
5:00 AM50 °FClear.No wind88%30.07 "Hg10 mi
4:30 AM52 °FClear.1 mph94%30.07 "Hg10 mi
4:00 AM50 °FClear.3 mph94%30.07 "Hg10 mi
3:30 AM48 °FClear.3 mph100%30.07 "Hg10 mi
3:00 AM48 °FClear.6 mph100%30.07 "Hg10 mi
2:30 AM48 °FClear.6 mph100%30.07 "Hg10 mi
2:00 AM48 °FClear.6 mph100%30.07 "Hg10 mi
1:30 AM50 °FClear.1 mph100%30.09 "Hg10 mi
1:00 AM50 °FClear.1 mph94%30.09 "Hg10 mi
12:30 AM50 °FClear.3 mph94%30.09 "Hg10 mi
12:00 AM52 °FClear.8 mph94%30.09 "Hg10 mi
11:30 PM
Tue, Sep 27
52 °FClear.6 mph94%30.09 "Hg10 mi
11:00 PM54 °FClear.6 mph94%30.09 "Hg10 mi
10:30 PM54 °FClear.6 mph88%30.09 "Hg10 mi
10:00 PM55 °FClear.6 mph88%30.09 "Hg10 mi
9:30 PM54 °FClear.3 mph94%30.09 "Hg10 mi
9:00 PM55 °FSunny.6 mph88%30.07 "Hg10 mi
8:30 PM57 °FSunny.6 mph82%30.07 "Hg10 mi
8:00 PM57 °FSunny.6 mph82%30.07 "Hg10 mi
7:30 PM59 °FSunny.10 mph77%30.07 "Hg10 mi
7:00 PM61 °FSunny.10 mph77%30.07 "Hg10 mi
6:30 PM63 °FSunny.13 mph73%30.04 "Hg10 mi
6:00 PM63 °FSunny.13 mph73%30.04 "Hg10 mi
5:30 PM63 °FSunny.13 mph73%30.04 "Hg10 mi
5:00 PM66 °FSunny.13 mph64%30.04 "Hg10 mi
4:30 PM64 °FPassing clouds.15 mph68%30.04 "HgN/A
4:00 PM64 °FPassing clouds.15 mph73%30.04 "HgN/A
3:30 PM66 °FPassing clouds.15 mph64%30.01 "HgN/A
3:00 PM68 °FPassing clouds.13 mph56%30.01 "HgN/A
2:30 PM68 °FPassing clouds.10 mph56%30.01 "HgN/A
2:00 PM66 °FBroken clouds.15 mph56%30.01 "HgN/A
1:30 PM68 °FPartly sunny.10 mph56%30.01 "HgN/A
1:00 PM70 °FPartly sunny.10 mph53%30.01 "HgN/A
Weather by CustomWeather, © 2016

See weather overviewHow to use our weather pages